Regional Weather Roundup
Issued by NWS

Home | Current Version | Previous Version | Graphics & Text | Print | Product List | Glossary On
Versions: 1 2 3 4 5 6 7 8 9 10 11 12 13 14 15 16 17 18 19 20 21 22 23 24 25 26 27
000
ASUS45 KCYS 230310
RWRWY

WYOMING REGIONAL WEATHER ROUNDUP
NATIONAL WEATHER SERVICE CHEYENNE WY
900 PM MDT TUE AUG 22 2017

NOTE:  "FAIR" INDICATES FEW OR NO CLOUDS BELOW 12,000 FEET
WITH NO SIGNIFICANT WEATHER AND/OR OBSTRUCTIONS TO VISIBILITY.

WYZ001-230400-
YELLOWSTONE NATIONAL PARK

CITY           SKY/WX    TMP DP  RH WIND       PRES   REMARKS
LK YELLOWSTONE   N/A     52  34  50 NW3       30.39R
W YELLOWSTONE  NOT AVBL

$$
WYZ002>013-054>058-071-098>099-230400-
NORTHERN WYOMING

CITY           SKY/WX    TMP DP  RH WIND       PRES   REMARKS
JACKSON        FAIR      68  31  25 W6        30.27R
CODY           FAIR      73  38  27 W3        30.17R
GREYBULL       FAIR      81  30  15 N3        30.05R
WORLAND        FAIR      68  34  28 CALM      30.07R
SHERIDAN       FAIR      62  43  49 CALM      30.10R
BUFFALO        FAIR      68  36  30 W8        30.18S
GILLETTE       FAIR      60  32  34 SW3       30.13S
HULETT         FAIR      68  41  37 E8        30.15S
NEWCASTLE      FAIR      70  43  37 S7        30.14R

$$
WYZ014>020-022>026-101>103-230400-
CENTRAL WYOMING

CITY           SKY/WX    TMP DP  RH WIND       PRES   REMARKS
BIG PINEY      FAIR      61  30  31 NW10      30.31R
PINEDALE       FAIR      59  32  36 W3        30.32R
DUBOIS         FAIR      66  23  19 CALM      30.31R
LANDER           N/A    N/A N/A N/A MISG      30.16R
RIVERTON       FAIR      75  27  17 N6        30.16S
CASPER         FAIR      73  40  30 E9        30.17R
DOUGLAS        FAIR      66  46  48 E6        30.16S

$$
WYZ021-027>030-104>119-230400-
SOUTHERN WYOMING

CITY           SKY/WX    TMP DP  RH WIND       PRES   REMARKS
EVANSTON       FAIR      66  40  38 S12       30.35S
KEMMERER         N/A    N/A N/A N/A W6        30.35R
FORT BRIDGER   CLEAR     68  37  32 SW16      30.36S
ROCK SPRINGS   FAIR      73  30  20 W10       30.29R
DIXON          FAIR      71  34  26 SW8       30.31R
RAWLINS        NOT AVBL
SARATOGA       FAIR      68  34  28 SW9       30.31R
LARAMIE        FAIR      61  53  75 SE12      30.31R
CHEYENNE       FAIR      68  53  58 S12       30.25S
TORRINGTON     FAIR      70  51  51 E14       30.12R
PINE BLUFFS    FAIR      68  52  56 SE13G18   30.21S

$$




USA.gov is the U.S. government's official web portal to all federal, state and local government web resources and services.